Content
SEND FEEDBACK

Daily
Averages
Monthly
Summary
Canada

QUEBEC CITY AIRPORT, QUEBEC


Home > North America > Canada > Quebec
Elevation: 244 feet     Latitude: 46 48N     Longitude: 71 23W

WEATHER
 
SELECT A DAY
Number of Records: 198,063;   Date Range: 6/30/96 - 12/18/14
 
SHARE

PRINT THIS DATA

[ ← Previous Day ]
WEATHER ALMANAC - FEBRUARY 19, 2013
[ Next Day → ]
[ °C ]   °F
Weather ElementAverageHighLow
Temperature18.6 °F28.4 °F (6:00 pm)3 °F (7:00 am)
Dewpoint7.5 °F23 °F (10:00 pm)-4 °F (7:00 am)
Humidity63.4 %80 % (11:00 pm)38 % (1:00 pm)
Barometer27.85 in30.12 in (4:00 am) (7:00 pm)
Wind Speed9.8 mph24.2 mph (11:28 pm)
Wind Gust20.7 mph (4:00 pm)
Weather ElementAverage
Visibility21.3 mi
Wind DirectionSSW (189 °)

Weather ElementTotal
Precipitation---
Heating Degree Days49.3 (Base 65)
Averaged from 29 records on February 19, 2013
WEATHER CONDITIONS BREAKOUT
WIND DIRECTION BREAKOUT
WEATHER BY HOUR - FEBRUARY 19, 2013
[ °C ]   °F
Local TimeTemperatureDewpointHumidityBarometerVisibilityWind DirectionWind SpeedGust SpeedPrecipitationEventsConditions
1:00 AM9.0 °F1.0 °F56 %30.08 inWSW (250°)10.4 mph
1:00 AM8.6 °F-0.4 °F67 %30.09 in15.0 miWSW (240°)12.7 mphClear
2:00 AM8.6 °F-2.2 °F62 %30.10 in15.0 miWSW (250°)13.8 mphPartly Cloudy
3:00 AM6.8 °F-2.2 °F67 %30.10 in15.0 miWest (260°)13.8 mphClear
4:00 AM6.8 °F-2.2 °F67 %30.12 in15.0 miWest (260°)6.9 mphClear
6:00 AM5.0 °F-2.2 °F72 %30.10 in30.0 miSSW (210°)10.4 mphPartly Cloudy
7:00 AM5.0 °F-4.0 °F66 %30.10 in30.0 miWNW (290°)5.8 mphScattered Clouds
7:00 AM3.0 °F-2.0 °F71 %30.10 inWNW (290°)4.6 mph
8:00 AM8.6 °F-2.2 °F62 %30.09 in30.0 miCalmScattered Clouds
9:00 AM10.4 °F-0.4 °F62 %30.08 in30.0 miSouth (190°)3.5 mphScattered Clouds
10:00 AM17.0 °F6.0 °F47 %30.05 inCalm
10:00 AM15.8 °F3.2 °F58 %30.06 in30.0 miCalmScattered Clouds
11:00 AM17.6 °F5.0 °F58 %30.03 in30.0 miNNE (20°)3.5 mphMostly Cloudy
12:00 PM19.4 °F6.8 °F58 %30.00 in30.0 miEast (90°)4.6 mphOvercast
1:00 PM23.0 °F6.8 °F50 %29.94 in30.0 miNE (50°)10.4 mphOvercast
1:00 PM23.0 °F8.0 °F38 %29.94 inENE (70°)6.9 mph
2:00 PM24.8 °F8.6 °F50 %29.89 in30.0 miENE (60°)11.5 mph17.3 mphOvercast
3:00 PM24.8 °F12.2 °F59 %29.84 in30.0 miENE (70°)13.8 mph19.6 mphOvercast
4:00 PM25.0 °F18.0 °F65 %29.79 inEast (80°)9.2 mph
4:00 PM24.8 °F15.8 °F69 %29.80 in30.0 miENE (70°)12.7 mph20.7 mphOvercast
5:00 PM24.8 °F17.6 °F74 %29.78 in30.0 miENE (70°)16.1 mphOvercast
6:00 PM28.4 °F17.6 °F64 %29.77 in15.0 miENE (70°)16.1 mphOvercast
8:00 PM28.4 °F19.4 °F69 %29.75 in15.0 miENE (70°)13.8 mph19.6 mphOvercast
8:49 PM28.4 °F0.0 °F15.0 miENE (60°)10.4 mph18.4 mphSnowLight Snow
9:00 PM28.4 °F21.2 °F74 %29.73 in15.0 miENE (70°)11.5 mphSnowLight Snow
10:00 PM28.0 °F23.0 °F74 %29.71 inENE (70°)8.1 mph
10:00 PM28.4 °F21.2 °F74 %29.72 in6.0 miNE (50°)13.8 mphSnowLight Snow
11:00 PM28.4 °F23.0 °F80 %29.67 in3.0 miENE (70°)15.0 mph20.7 mphSnowLight Snow
11:28 PM28.4 °F0.0 °F0.0 mi17.3 (2013°)24.2 mph0.00 inLight Snow70
Hourly data recorded from CYQB, located miles away from Quebec City Airport, Quebec







STORIES FROM OUR PARTNERS